Coeur d'Alene, ID (83814)

3:14 AM PDT on October 24, 2014 (GMT -0700)
Downtown Coeur d'Alene | Change Station
CLOSE
Current Station
Personal Weather Station
Location: Coeur d'Alene, ID
Elevation: 2175 ft
Nearby Weather Stations

Elev 2175 ft 47.67 °N, 116.79 °W | Updated 4 minutes ago

Partly Cloudy
Partly Cloudy
48.4 °F
Feels Like 45 °F
N
6.9
Wind Variable Wind from East
Gusts 9.8 mph

Today
High -- | Low -- °F
--% Chance of Precip.
Yesterday
High -- | Low -- °F
Precip. -- in
7:19 AM 5:42 PM
New Moon, 0% visible
Pressure 30.03 in
Visibility 10.0 miles
Clouds Clear
Windchill 45 °F
Dew Point 43 °F
Humidity 82%
Rainfall 0.00 in
Snow Depth Not available.
UV 0 out of 12
Pollen .40 out of 12
Air Quality Not available.
Flu Activity Sporadic
METAR KCOE 240955Z AUTO 00000KT 10SM CLR 07/04 A3003 RMK AO1

More Conditions Fewer Conditions

Pressure 30.03 in
Visibility 10.0 miles
Clouds Clear
Windchill 45 °F
Dew Point 43 °F
Humidity 82%
Rainfall 0.00 in
Snow Depth Not available.
UV 0 out of 12
Pollen .40 out of 12
Air Quality Not available.
Flu Activity Sporadic
METAR KCOE 240955Z AUTO 00000KT 10SM CLR 07/04 A3003 RMK AO1

More Conditions Fewer Conditions

10-Day Weather Forecast

Almanac

Astronomy

Oct. 24, 2014 Rise Set
Actual Time 7:19 AM PDT 5:42 PM PDT
Civil Twilight 6:47 AM PDT 6:14 PM PDT
Nautical Twilight 6:11 AM PDT 6:50 PM PDT
Astronomical Twilight 5:35 AM PDT 7:25 PM PDT
Moon 8:05 AM PDT 6:21 PM PDT
Length of Visible Light 11h 26m
Length of Day
10h 22m
Tomorrow will be 3m 13s shorter.
New Moon, 0% of the Moon is Illuminated
Today
New Moon
Oct 30
First Quarter
Nov 6
Full
Nov 14
Last Quarter
Nov 22
New

Today's Extremes

State Highs State Lows

Community

WunderPhotos

Upload Photos

1,764,513 photos uploaded!

WunderBlogs® & News

Nearby

Snow Depth

Station Depth Elevation
Mosquito Ridge 0 in 5200 ft
Mica Creek 2 in 4750 ft
Humboldt Gulch 1 in 4250 ft
Schweitzer Basin 0 in 6090 ft
Lookout 0 in 5140 ft

Earthquake Activity

City Distance Mag. Time & Date
No recent earthquake activity has been reported nearby.
Minimum magnitude displayed is 2.5.

Coastal Water Temperatures

Place Temperature
No Stations Reporting

Nearby Weather Stations